User: anonymous   Login
Location: Sunrise Point
(46.9200°N, 121.5900°W)
Time: 11:13:03
(UTC-07:00)
Language:

Cosmos 2058 - Orbit

View from above orbital plane
View from above orbital plane
View from above satellite
View from above satellite

Ground track
Ground track

The orbit data is extracted from the following two-line orbital elements,

1 20465U 90010A   14302.93213028  .00003288  00000-0  29577-3 0  2666
2 20465 082.4897 091.0495 0015090 290.8390 069.1215 14.95284976341547
Epoch (UTC): 29 October 2014 22:22:16
Eccentricity: 0.0015090
inclination: 82.4897°
perigee height: 571 km
apogee height: 592 km
right ascension of ascending node: 91.0495°
argument of perigee: 290.8390°
revolutions per day: 14.95284976
mean anomaly at epoch: 69.1215°
orbit number at epoch: 34154

The dashed part of the orbit path shows where the satellite is in the earth's shadow,  

DLR